Regional Weather Roundup
Issued by NWS

Home | Current Version | Previous Version | Text Only | Print | Product List | Glossary Off
Versions: 1 2 3 4 5 6 7 8 9 10 11 12 13 14 15 16 17 18 19 20 21 22 23 24 25 26 27 28 29 30 31 32 33 34 35 36 37 38 39 40 41 42 43 44 45 46 47 48 49 50

000
ASUS45 KPSR 201500
RWRAZ

PRELIMINARY ARIZONA REGIONAL HOURLY WEATHER ROUNDUP
NATIONAL WEATHER SERVICE PHOENIX AZ
800 AM MST SUN APR 20 2014

NOTE: FAIR INDICATES FEW OR NO CLOUDS BELOW 12,000 FEET WITH NO
SIGNIFICANT WEATHER AND/OR OBSTRUCTIONS TO VISIBILITY.

AZZ001>003-036-201600-
NORTHWEST ARIZONA

CITY           SKY/WX    TMP DP  RH WIND       PRES   REMARKS
KINGMAN        SUNNY     68  38  33 CALM      30.11R
$$

AZZ004>008-015-016-018-201600-
NORTH CENTRAL ARIZONA

CITY           SKY/WX    TMP DP  RH WIND       PRES   REMARKS
GRAND CANYON   SUNNY     48  40  73 CALM      30.25R
WILLIAMS       SUNNY     54  37  54 W5        30.32R
PRESCOTT       SUNNY     57  37  47 VRB3      30.20R
FLAGSTAFF      SUNNY     52  36  54 VRB6      30.25R
PAYSON         SUNNY     57  39  51 CALM      30.21S
PAGE           SUNNY     60  35  39 SE5       30.13R
$$

AZZ009>014-017-201600-
NORTHEAST ARIZONA

CITY           SKY/WX    TMP DP  RH WIND       PRES   REMARKS
WINSLOW        NOT AVBL
SAINT JOHNS    SUNNY     53  37  54 S3        30.19S
WINDOW ROCK    SUNNY     45  38  76 CALM      30.22R
SHOW LOW       SUNNY     52  37  58 SW6       30.25R
$$

AZZ023-201600-
GREATER PHOENIX AREA

CITY           SKY/WX    TMP DP  RH WIND       PRES   REMARKS
PHOENIX        SUNNY     71  44  37 E8        30.03R
GLENDALE       SUNNY     70  43  37 CALM      30.05R
LUKE AFB       NOT AVBL
DEER VALLEY    SUNNY     70  42  36 E5        30.04R
SCOTTSDALE     SUNNY     70  44  39 SE3       30.06R
MESA-FALCON    SUNNY     68  39  34 N5        30.05R
CHANDLER       SUNNY     68  48  49 CALM      30.05R
$$

AZZ027-028-201600-
SOUTHWEST MARICOPA COUNTY AND PINAL COUNTY

CITY           SKY/WX    TMP DP  RH WIND       PRES   REMARKS
CASA GRANDE    SUNNY     64  43  45 CALM      30.07R
$$

AZZ503-504-507>509-201600-
SOUTHEAST ARIZONA

CITY           SKY/WX    TMP DP  RH WIND       PRES   REMARKS
TUCSON         SUNNY     66  41  40 SE6       30.11R
DAVIS-MONTHAN  SUNNY     65  42  43 S5        30.10R
RYAN FIELD       N/A     61  43  51 E3        30.11R
NOGALES        SUNNY     56  39  53 S7        30.12S
SIERRA VISTA   SUNNY     61  39  44 MISG      30.17R
SAFFORD        SUNNY     59  41  51 S5        30.12R
$$

AZZ020-021-025-026-031-201600-
SOUTHWEST ARIZONA

CITY           SKY/WX    TMP DP  RH WIND       PRES   REMARKS
YUMA           SUNNY     74  41  30 E5        29.99R
$$

CAZ031-033-041-043-047-048-061-201600-
SOUTHERN CALIFORNIA

CITY           SKY/WX    TMP DP  RH WIND       PRES   REMARKS
DOWNTOWN L.A.  MOSUNNY   63  55  75 CALM      30.05R
L.A. AIRPORT   MOSUNNY   61  56  83 E3        30.06R
SAN DIEGO      CLOUDY    62  55  77 NE3       30.06S
BURBANK        SUNNY     59  53  80 CALM      30.05R
ONTARIO        MOSUNNY   61  52  72 CALM      30.06R
RIVERSIDE      SUNNY     59  52  77 CALM      30.06R
PALM SPRINGS   SUNNY     74  47  38 NW7       30.01R
EL CENTRO NAS  SUNNY     69  51  52 CALM      29.98R
IMPERIAL       SUNNY     70  59  68 SE3       29.97R
BLYTHE         SUNNY     72  41  32 N3        30.00R
$$

NVZ020-UTZ003-201600-
SOUTHERN NEVADA-UTAH

CITY           SKY/WX    TMP DP  RH WIND       PRES   REMARKS
LAS VEGAS      NOT AVBL
SALT LAKE CITY PTSUNNY   56  43  61 N7        30.12R
$$

NMZ009-TXZ055-201600-
NEW MEXICO-WEST TEXAS

CITY           SKY/WX    TMP DP  RH WIND       PRES   REMARKS
ALBUQUERQUE    PTSUNNY   54  45  71 S7        30.16R
EL PASO        MOSUNNY   57  49  74 S5        30.14S
$$


........................KEY........................
SKY/WX - SKY CONDITION/WEATHER
TMP    - TEMPERATURE IN FAHRENHEIT
DP     - DEW POINT IN FAHRENHEIT
RH     - RELATIVE HUMIDITY IN PERCENT
WIND   - DIRECTION AND SPEED IN MILES PER HOUR (MPH)
VRB    - VARIABLE WIND DIRECTION
PRES   - MEAN SEA LEVEL PRESSURE IN INCHES OF MERCURY
         F - FALLING PRESSURE   R - RISING PRESSURE
         S - STEADY PRESSURE
VSB    - VISIBILITY IN MILES
HX     - HEAT INDEX IN FAHRENHEIT
WCI    - WIND CHILL INDEX IN FAHRENHEIT
TC     - TEMPERATURE IN CELSIUS WHICH IS ALSO KNOWN AS
         TEMPERATURE IN CENTIGRADE
AFB    - AIR FORCE BASE
         LUKE AFB IS LUKE AIR FORCE BASE
         DAVIS-MONTHAN IS DAVIS-MONTHAN AIR FORCE BASE
NAS    - NAVAL AIR STATION
         EL CENTRO NAS IS EL CENTRO NAVAL AIR STATION
N/A    - NOT AVAILABLE



USA.gov is the U.S. government's official web portal to all federal, state and local government web resources and services.